SCP
0 0 0 0 0 0 -0 -0 -0 -0 -0 0 0 0 0 0 0 0 0 0 0 0 0 0 0 0 0 0 0 0 0 0 0 0 0 0 0 0 0 0 0 0 0 0 0 0 0 0 0
0 0 0 0 0 0 0 -0 0 0 0 0 0 0 0 0 0 0 0 0 0 0 0 0 0 0 0 0 0 0 0 0 0 0 0 0 0 0 0 0 0 0 0 0 0 0 0 0 0
0 0 0 0 0 0 0 0 0 0 0 0 0 0 0 0 0 0 0 0 0 0 0 0 0 0 0 0 0 0 0 0 0 0 0 0 0 0 0 0 0 0 0 0 0 0 0 0 0
-0 -0 -0 0 0 0 0 0 0 0 0 0 0 0 0 0 0 0 0 0 0 0 0 0 0 0 0 0 0 0 0 0 0 0 0 0 0 0 0 0 0 0 0 0 0 0 0 0 0
0 -0 -0 -0 0 0 0 0 0 0 0 0 0 0 0 0 0 0 0 0 0 0 0 0 0 0 0 0 0 0 0 0 0 0 0 0 0 0 0 0 0 0 0 0 0 0 0 0 0
0 -0 -0 -0 0 0 0 0 0 0 0 0 0 0 0 0 0 0 0 0 0 0 0 0 0 0 0 0 0 0 0 0 0 0 0 0 0 0 0 0 0 0 0 0 0 0 0 0 0
0 -0 -0 -0 0 0 0 0 0 0 0 0 0 0 1 1 0 0 0 0 0 0 0 0 0 0 0 0 0 0 0 0 0 0 0 0 0 0 0 0 0 0 0 0 0 0 0 0 0
0 0 -0 0 0 0 0 0 0 0 0 0 0 1 1 1 1 1 1 1 0 0 0 0 0 0 0 0 0 0 0 0 0 0 0 0 0 0 0 0 0 0 0 0 0 0 0 0 0
0 0 0 0 0 0 0 0 0 1 1 1 1 1 1 1 1 1 1 1 0 0 0 0 0 0 0 0 0 0 0 0 0 0 0 0 0 0 0 0 0 0 0 0 0 0 0 0 0
0 0 0 0 0 0 0 0 1 1 1 1 1 2 2 2 2 1 1 1 1 0 0 0 0 0 0 0 0 0 0 0 0 0 0 0 0 0 0 0 0 0 0 0 0 0 0 0 0
0 0 0 0 0 0 0 1 1 1 1 1 2 2 2 2 2 2 1 1 1 0 0 0 0 0 0 0 0 0 0 0 0 0 0 0 1 1 0 0 0 0 0 0 0 0 0 1 1
0 0 0 0 0 1 1 1 1 2 1 1 2 2 2 2 2 1 1 1 1 1 0 0 0 0 0 0 0 0 0 0 0 0 0 0 1 1 1 0 0 0 0 0 0 0 1 1 1
0 0 0 0 1 1 1 2 2 1 1 1 2 2 2 2 1 1 1 1 1 0 0 0 0 0 0 0 0 0 0 0 0 0 0 0 1 1 1 1 0 0 0 0 0 0 0 1 1
0 0 0 0 1 1 1 1 1 1 1 1 2 1 1 1 1 1 1 0 0 0 0 0 0 0 0 0 0 0 0 0 0 0 0 0 0 0 0 0 0 0 0 0 0 0 0 0 0
0 0 0 0 0 1 1 1 1 1 1 1 1 1 1 1 1 0 0 0 0 0 0 0 0 0 0 0 0 0 0 0 0 0 0 0 0 0 0 0 0 0 0 0 0 0 0 0 0
0 0 0 0 0 0 0 1 1 1 1 1 1 1 1 1 0 0 0 0 0 0 0 0 0 0 0 0 0 0 0 0 0 0 0 0 0 0 0 0 0 0 0 0 0 0 0 0 0
0 0 0 0 0 0 0 0 0 0 1 1 1 0 0 0 0 0 0 0 0 0 0 0 0 0 0 0 0 0 0 0 0 0 0 0 0 0 0 0 0 0 0 0 0 0 0 0 0
0 0 0 0 0 0 0 0 0 0 0 0 0 0 0 0 0 0 0 -0 -0 -0 -0 0 0 0 0 0 0 0 0 0 0 0 0 0 0 0 0 0 0 0 0 0 0 0 0 0 0
0 0 0 0 0 0 0 0 0 0 0 0 0 0 0 0 0 0 -0 -0 -0 -0 -0 -0 -0 0 0 0 0 0 0 0 0 0 0 0 0 0 0 0 0 0 0 0 0 0 0 0 0
0 0 0 0 0 0 0 0 0 0 0 0 0 0 0 0 0 -0 -0 -0 -0 0 -0 0 0 0 0 0 0 0 0 0 0 0 0 0 0 0 0 0 0 0 0 0 0 0 0 0 0
0 0 0 0 0 0 0 0 0 0 0 0 0 0 0 0 0 0 0 0 0 0 0 0 0 0 0 0 0 0 0 0 0 0 0 0 0 0 0 0 0 0 0 0 0 0 0 0 0
0 0 0 0 0 0 0 0 0 0 0 0 0 0 0 0 0 0 0 0 0 0 0 0 0 0 0 0 0 0 0 0 0 0 0 0 0 0 0 0 0 0 0 0 0 0 0 0 0
0 0 0 0 0 0 0 0 0 0 0 0 0 0 0 0 0 0 0 0 0 0 0 0 0 0 0 0 0 0 0 0 0 0 0 0 0 0 0 0 0 0 0 0 0 0 0 0 0
0 0 0 0 0 0 0 0 0 0 0 0 0 0 0 0 0 0 0 0 0 0 0 0 0 0 0 0 0 0 0 0 0 0 0 0 0 0 0 0 0 0 0 0 0 0 0 0 0
0 0 0 0 0 0 0 0 0 0 0 0 0 0 0 0 0 0 0 0 0 0 0 0 0 0 0 0 0 0 0 0 0 0 0 0 0 0 0 0 0 0 0 0 0 0 0 0 0
0 0 0 0 0 0 0 0 0 0 0 0 0 0 0 0 0 0 0 0 0 0 0 0 0 0 0 0 0 0 0 0 0 0 0 0 0 0 0 0 0 0 0 0 0 0 0 0 0
0 0 0 0 0 0 0 0 0 0 0 0 0 0 0 0 0 0 0 0 0 0 0 0 0 0 0 0 0 0 0 0 0 0 0 0 0 0 0 0 0 0 0 0 0 0 0 0 0
0 0 0 0 0 0 0 0 0 0 0 0 0 0 0 0 0 0 0 0 0 0 0 0 0 0 0 0 0 0 0 0 0 0 0 0 0 0 0 0 0 0 0 0 0 0 0 0 0
-0 0 0 0 0 0 0 0 0 0 0 0 0 0 0 0 0 0 0 0 0 0 0 0 0 0 0 0 0 0 0 0 0 0 0 0 0 0 0 0 0 0 0 0 0 0 0 0 0
-0 -0 0 0 0 0 0 0 0 0 0 0 0 0 0 0 0 0 0 0 0 0 0 0 0 0 0 0 0 0 0 0 0 0 0 0 0 0 0 0 0 0 0 0 0 0 0 0 0
Wind_Speed
14 8 3 2 3 2 5 6 4 3 2 2 4 7 7 5 2 3 3 9 13 11 8 11 13 14 15 15 15 16 15 15 15 14 14 13 13 12 12 12 11 11 10 9 9 8 8 7 7
7 4 2 3 2 2 5 4 3 2 2 3 5 6 7 6 4 7 6 9 14 11 7 9 13 13 14 14 14 14 14 14 13 13 13 12 12 11 11 11 11 10 10 9 9 8 8 7 8
6 2 3 3 1 3 6 4 3 2 2 2 4 5 5 4 5 5 6 14 13 10 7 9 14 14 13 13 13 13 13 12 12 11 11 11 10 10 10 10 9 9 9 9 8 8 8 7 7
4 2 4 3 4 6 6 8 5 1 3 5 4 5 5 5 3 7 13 15 13 9 7 8 13 13 12 11 11 11 11 11 10 10 9 9 9 9 9 9 8 8 8 8 8 8 8 8 7
2 3 3 2 6 6 5 7 3 1 3 5 4 5 5 6 9 14 14 14 13 9 6 7 12 11 11 10 10 10 10 9 9 9 9 9 9 9 8 8 8 7 7 7 7 8 8 8 8
3 4 3 3 6 6 4 6 4 6 4 4 5 5 4 5 9 11 12 11 10 9 6 6 11 11 10 9 9 9 9 9 8 8 9 9 9 9 8 9 9 8 8 7 7 7 8 8 8
4 4 2 3 5 5 6 6 7 4 5 5 3 5 4 6 8 10 10 10 9 8 6 5 5 6 8 8 8 8 8 7 7 8 8 8 8 8 8 8 8 9 9 9 9 9 9 8 8
4 4 1 3 3 4 5 5 5 6 4 5 4 6 4 6 10 11 10 9 8 6 5 4 4 3 2 3 6 7 7 7 7 8 8 8 9 9 9 7 8 9 10 10 10 10 10 9 9
4 4 2 4 3 3 3 4 4 5 7 6 7 4 8 13 12 12 11 8 7 6 4 3 3 2 1 1 3 4 6 6 6 6 9 8 4 3 4 7 9 10 11 11 11 12 11 11 10
4 3 7 5 4 2 2 4 4 6 8 7 8 11 13 13 11 11 10 8 7 6 4 3 2 1 1 1 0 1 1 1 2 2 4 3 2 3 5 6 10 11 11 11 11 12 11 9 5
5 6 6 5 4 2 2 4 6 5 8 5 5 9 11 11 9 8 7 6 5 5 4 3 2 1 1 1 1 1 1 1 2 2 4 3 2 2 3 2 4 4 6 4 6 7 5 5 5
4 5 3 4 1 2 3 5 7 9 7 6 7 8 9 9 8 7 7 6 6 6 5 4 4 3 3 2 2 2 2 2 2 2 2 2 2 2 2 2 2 2 2 3 3 3 5 6 7
3 2 3 4 9 9 11 9 8 8 8 9 10 10 10 9 8 7 7 8 7 6 6 5 5 4 4 4 3 4 3 3 3 3 3 2 1 2 1 1 1 2 2 2 2 3 4 5 6
1 3 3 5 7 5 10 6 6 5 6 9 10 9 9 9 7 7 7 6 6 5 4 4 4 3 4 4 3 2 2 2 2 2 3 3 1 1 1 1 1 1 1 2 2 3 4 4 4
2 3 4 4 3 3 7 7 3 3 6 8 8 8 8 7 7 6 6 5 5 4 4 3 3 3 4 3 2 2 2 2 3 3 4 3 2 1 1 1 1 2 2 2 2 3 3 3 4
3 3 2 2 1 2 5 4 2 2 4 6 6 7 7 6 6 5 6 5 5 4 4 3 3 3 3 3 2 2 2 3 3 3 3 4 3 2 1 1 2 2 1 1 2 2 2 3 4
4 1 1 2 1 1 4 4 4 2 3 4 5 5 6 6 6 5 6 6 5 5 4 3 3 3 3 2 2 2 2 3 3 3 3 4 4 3 2 2 2 2 2 2 2 2 2 4 5
3 2 2 2 1 3 3 3 3 3 3 4 4 5 5 6 7 6 6 5 5 4 3 3 2 2 2 2 2 2 3 3 3 3 4 5 4 4 3 2 2 2 2 2 2 3 3 3 5
4 3 2 1 1 3 2 3 2 2 2 3 4 5 5 5 5 5 6 6 5 4 4 3 3 2 1 1 1 1 2 2 3 3 4 5 5 5 3 3 3 2 2 3 3 2 3 3 2
3 2 2 1 3 3 1 1 1 2 2 3 4 5 6 5 4 5 6 6 6 6 5 4 4 3 2 1 1 1 1 2 2 3 3 4 5 5 4 4 3 3 2 3 3 2 2 2 1
2 4 4 4 3 4 2 2 1 1 1 3 4 4 5 7 7 7 7 7 6 6 6 5 5 4 3 1 1 1 2 2 3 3 3 4 5 5 4 4 3 3 1 2 3 2 2 2 2
2 1 5 6 5 4 5 3 4 2 3 2 4 4 5 6 6 6 6 6 6 6 5 5 5 4 3 2 1 1 1 2 3 2 3 5 4 4 4 4 3 3 2 2 3 1 2 2 3
3 6 8 6 5 3 5 2 7 2 3 5 5 6 6 6 7 7 6 6 5 5 5 5 4 3 3 2 2 2 2 3 2 3 4 4 4 4 4 3 3 3 2 2 2 2 2 2 2
8 7 8 7 5 3 2 1 6 4 5 5 4 5 6 6 6 5 4 4 4 4 4 4 4 3 3 3 3 3 4 4 4 4 3 3 3 3 4 4 3 3 3 3 3 2 3 2 3
5 7 5 5 4 3 1 1 9 7 6 6 7 6 6 5 4 4 4 5 5 5 4 4 4 4 4 4 4 4 5 5 5 4 4 4 3 3 4 3 3 3 3 4 3 3 3 3 3
3 7 6 3 3 3 1 4 8 6 5 6 6 5 4 4 4 5 6 6 5 5 5 4 4 4 4 4 5 4 5 4 4 4 4 4 4 4 5 5 4 5 5 4 3 3 3 3 3
5 3 5 7 2 1 4 6 9 4 4 4 4 4 4 4 5 5 5 5 5 5 5 5 5 5 5 5 5 5 5 5 5 5 4 4 5 5 5 5 5 5 5 4 4 3 4 4 4
5 8 6 6 5 1 4 4 6 6 7 5 4 5 5 4 5 5 5 4 4 4 3 4 5 6 6 5 5 4 5 5 5 4 5 5 5 5 5 6 6 6 5 5 4 4 4 5 5
3 4 6 5 5 6 3 8 8 9 8 7 8 6 7 7 7 6 4 3 3 3 3 4 5 5 5 6 5 5 5 5 4 5 6 6 5 6 6 6 6 7 7 6 5 5 5 6 6
1 4 7 5 3 4 4 10 5 6 7 7 7 6 6 7 5 4 3 3 3 4 4 5 5 6 6 5 5 6 6 5 5 6 6 6 6 6 6 7 7 8 7 6 6 7 6 6 7
Wind_Direction
137 128 115 79 48 21 276 258 246 285 335 22 67 82 88 75 93 131 109 126 129 135 141 144 142 139 135 132 129 128 128 128 129 131 134 137 142 147 152 156 160 162 162 160 157 152 146 141 137
133 134 80 69 66 341 285 254 262 279 155 118 75 79 76 70 74 108 123 133 134 134 133 142 143 141 139 137 134 133 133 134 136 139 142 146 150 154 159 162 165 167 168 167 166 163 158 152 148
146 132 93 81 116 234 276 285 296 345 29 45 66 59 72 93 124 131 137 136 129 128 127 148 147 145 144 141 139 137 138 140 142 146 149 153 158 162 166 170 173 176 176 176 177 175 171 166 161
137 69 66 71 257 243 252 275 284 310 22 38 79 62 55 35 121 127 131 133 128 122 124 147 147 147 147 147 146 145 145 148 152 156 160 165 170 175 178 182 186 188 188 187 187 187 184 180 175
79 85 61 336 269 261 266 289 281 89 59 37 64 77 44 23 88 116 128 133 130 121 118 139 144 145 148 151 154 155 157 160 165 171 176 181 186 191 194 197 201 202 201 201 201 201 196 193 190
72 73 78 298 288 289 311 343 38 56 64 56 62 77 56 78 102 118 124 126 126 123 114 130 142 145 150 155 160 164 169 174 180 187 192 197 202 207 209 212 214 215 216 216 216 217 212 205 205
116 114 180 261 290 316 338 356 36 33 52 39 64 87 91 96 103 112 114 117 119 115 106 106 125 143 154 161 168 176 183 189 196 203 208 213 218 222 224 225 226 223 224 226 227 225 223 217 216
139 111 293 277 280 307 331 10 28 33 41 27 49 112 136 126 114 109 107 107 110 102 95 94 97 102 123 161 184 192 199 205 212 220 225 229 233 235 237 237 240 240 237 236 234 230 228 224 222
109 78 255 245 238 277 342 24 35 48 53 39 36 73 118 122 118 115 114 115 122 118 98 89 86 87 101 166 219 216 222 226 231 239 242 240 245 259 261 256 251 251 251 249 244 239 236 232 228
111 156 232 229 219 231 353 36 39 61 51 44 55 74 106 118 122 124 130 135 138 136 123 95 92 105 150 213 239 296 287 272 249 265 266 262 243 244 254 264 264 263 262 261 257 252 247 240 228
167 203 240 257 246 223 90 56 31 87 58 46 82 105 113 110 110 114 119 122 121 117 108 86 74 91 120 355 14 2 340 333 306 294 275 265 258 254 262 269 280 284 284 282 278 270 250 235 222
189 248 259 293 313 89 87 96 63 57 74 71 87 102 109 104 100 104 105 97 94 90 81 70 59 53 61 54 36 26 10 359 344 319 295 279 267 257 248 251 264 269 277 280 279 271 261 250 237
213 292 25 47 71 81 86 81 92 79 87 88 91 93 100 100 94 89 91 97 97 89 77 66 65 63 65 61 45 38 17 358 352 349 343 319 268 261 255 254 256 262 264 271 282 280 275 266 256
155 95 67 53 75 73 90 75 84 102 108 101 99 98 100 101 103 102 101 102 102 100 96 84 78 77 78 71 66 53 31 6 3 354 337 324 291 264 253 259 274 277 270 264 265 272 275 272 266
127 95 44 36 76 127 96 60 66 142 125 113 112 111 107 109 112 117 126 129 133 133 126 122 119 103 97 95 85 71 49 39 25 359 344 342 337 306 283 276 281 280 279 278 278 282 279 276 268
68 66 41 333 66 151 116 138 175 161 137 131 128 127 125 122 126 139 145 153 161 160 163 173 142 132 120 108 92 73 49 43 27 10 0 1 360 353 335 311 299 303 300 292 290 282 283 276 274
34 88 216 271 6 100 121 156 177 168 152 144 142 142 142 143 148 165 169 176 181 183 181 180 161 150 128 98 71 55 43 35 16 12 11 5 3 3 355 319 307 318 312 294 290 283 264 277 279
229 219 220 232 359 73 99 141 164 185 182 167 161 157 158 167 176 178 184 191 193 198 198 189 170 151 110 69 42 24 20 13 8 6 2 2 359 4 1 330 315 314 297 290 284 282 273 265 274
191 192 210 233 54 80 113 145 187 188 187 186 188 181 181 194 189 187 193 195 195 203 206 201 186 185 122 63 45 15 340 332 339 345 354 356 357 360 5 350 327 317 285 279 283 278 286 279 270
179 182 191 80 47 82 109 133 177 182 192 206 211 206 195 202 202 204 205 202 204 207 207 206 204 201 194 167 163 206 276 293 292 313 335 347 352 352 0 354 332 318 297 299 294 263 277 279 270
213 191 180 152 111 49 30 19 14 267 221 216 217 220 213 209 212 216 215 213 209 212 208 205 203 205 203 172 106 33 0 341 339 334 330 333 337 340 345 349 347 341 327 302 296 269 249 276 282
259 233 129 111 88 18 31 343 308 314 308 250 229 225 227 225 221 221 222 222 218 217 202 197 195 199 202 176 180 214 245 275 270 282 293 308 320 327 334 343 351 355 349 324 306 306 247 255 283
92 69 82 85 91 49 25 27 298 336 300 267 242 230 231 231 226 225 222 221 215 199 188 185 182 198 207 205 212 224 244 247 271 282 292 303 313 319 327 331 345 346 337 328 324 324 293 247 255
122 77 59 50 61 30 350 36 291 264 239 261 255 242 237 236 232 227 216 195 190 175 166 165 176 210 225 230 231 226 245 259 273 283 290 299 304 305 313 318 327 322 318 315 309 303 298 274 261
80 83 39 10 16 275 279 255 256 257 237 232 247 251 244 238 229 216 193 182 180 173 169 171 185 223 238 242 245 238 241 244 248 262 269 281 290 290 294 303 299 299 299 301 302 298 296 283 274
146 130 151 193 219 274 309 252 256 257 260 247 244 248 242 227 209 202 196 187 186 184 179 183 199 227 242 245 250 247 242 235 243 251 252 260 262 270 278 280 279 281 288 296 303 295 290 284 281
137 143 144 121 112 32 287 284 298 265 262 249 241 234 230 212 201 200 196 192 193 193 197 199 208 232 245 246 249 252 246 238 247 257 255 257 259 269 273 276 278 278 276 277 282 278 285 289 280
120 137 102 107 129 256 297 278 253 257 247 239 228 225 221 206 206 207 206 207 207 210 219 221 222 232 245 250 248 250 248 244 248 258 265 265 269 270 279 281 280 278 274 269 262 265 271 275 276
121 95 101 105 143 151 237 266 228 223 224 220 226 220 207 206 210 215 221 223 226 237 239 240 241 246 257 257 256 259 259 256 257 260 265 268 274 276 277 279 282 282 278 270 258 257 261 261 269
191 157 147 145 195 167 180 265 262 237 234 219 223 218 210 212 217 224 229 235 242 248 251 250 251 252 256 258 261 260 263 263 263 265 269 272 274 276 276 278 281 281 278 270 262 266 267 257 261